SCP
2 1 1 1 1 1 1 1 1 1 1 1 1 1 0 0 0 0 0 0 0 0 0 0 0 0 0 0 0 0 0 0 0 0 0 0 0 0 0 0 0 0 0
2 2 1 1 1 1 1 1 1 1 1 1 1 0 0 0 0 0 0 0 0 0 0 0 0 0 0 0 0 0 0 0 0 0 0 0 0 0 0 0 0 0 0
2 1 1 1 1 1 2 2 2 1 1 1 1 0 0 0 0 0 0 0 0 0 0 0 0 0 0 0 0 0 0 0 0 0 0 0 0 0 0 0 0 0 0
2 1 1 1 1 1 2 2 2 1 1 1 0 0 0 0 0 0 0 0 0 0 0 0 0 0 0 0 0 0 0 0 0 0 0 0 0 0 0 0 0 0 0
2 1 1 1 1 1 2 2 1 1 1 0 0 0 0 0 0 0 0 0 0 0 0 0 0 0 0 0 0 0 0 0 0 0 0 0 0 0 0 0 0 0 0
2 1 1 1 1 1 1 1 1 0 0 0 0 0 0 0 0 0 0 0 0 0 0 0 0 0 0 0 0 0 0 0 0 0 0 0 0 0 0 0 0 0 0
1 1 0 0 0 1 1 0 0 0 0 0 0 0 0 0 0 0 0 0 0 0 0 0 0 0 0 0 0 0 0 0 0 0 0 0 0 0 0 0 0 0 0
0 0 0 0 0 0 0 0 0 0 0 0 0 0 0 0 0 0 0 0 0 0 0 0 0 0 0 0 0 0 0 0 0 0 0 0 0 0 0 0 0 0 0
0 0 0 0 0 0 0 0 0 0 0 0 0 0 0 0 0 0 0 0 0 0 0 0 0 0 0 0 0 0 0 0 0 0 0 0 0 0 0 0 0 0 0
0 0 0 0 0 0 0 0 0 0 0 0 0 0 0 0 0 0 0 0 0 0 0 0 0 0 0 0 0 0 0 0 0 0 0 0 0 0 0 0 0 0 0
0 0 0 0 0 0 0 0 0 0 0 0 0 0 0 0 0 0 0 0 0 0 0 0 0 0 0 0 0 0 0 0 0 0 0 0 0 0 0 0 0 0 0
0 0 0 0 0 0 0 0 0 0 0 0 0 0 0 0 0 0 0 0 0 0 0 0 0 0 0 0 0 0 0 0 0 0 0 0 0 0 0 0 0 0 0
0 0 0 0 0 0 0 0 0 0 0 0 0 0 0 0 0 0 0 0 0 0 0 0 0 0 0 0 0 0 0 0 0 0 0 0 0 0 0 0 0 0 0
0 0 0 0 0 0 0 0 0 0 0 0 0 0 0 0 0 0 0 0 0 0 0 0 0 0 0 0 0 0 0 0 0 0 0 0 0 0 0 0 0 0 0
0 0 0 0 0 0 0 0 0 0 0 0 0 0 0 0 0 0 0 0 0 0 0 0 0 0 0 0 0 0 0 0 0 0 0 0 0 0 0 0 0 0 0
0 0 0 0 0 0 0 0 0 0 0 0 0 0 0 0 0 0 0 0 0 0 0 0 0 0 0 0 0 0 0 0 0 0 0 0 0 0 0 0 0 0 0
0 0 0 0 0 0 0 0 0 0 0 0 0 0 0 0 0 0 0 0 0 0 0 0 0 0 0 0 -0 0 0 0 0 0 0 0 0 -0 0 0 0 0 0
0 0 0 0 0 0 0 0 0 0 0 0 0 0 0 0 0 0 0 0 0 0 0 0 0 0 0 0 0 0 0 0 0 0 0 0 0 0 0 0 0 0 0
0 0 0 0 0 0 0 0 0 0 0 0 0 0 0 0 0 0 0 0 0 0 0 0 0 0 0 0 0 0 0 0 0 0 0 0 0 0 0 0 0 0 0
0 0 0 0 0 0 0 0 0 0 0 0 0 0 0 0 0 0 0 0 0 0 0 0 0 0 0 0 0 0 0 0 0 0 0 0 0 0 0 0 0 0 0
0 0 0 0 0 0 0 0 0 0 0 0 0 0 0 0 0 0 0 0 0 0 0 0 0 0 0 0 0 0 0 0 0 0 0 0 0 0 0 0 0 0 0
0 0 0 0 0 0 0 0 0 0 0 0 0 0 0 0 0 0 0 0 0 0 0 0 0 0 0 0 0 0 0 0 0 0 0 0 0 0 0 0 0 0 0
0 0 0 0 0 0 0 0 0 0 0 0 0 0 0 0 0 0 0 0 0 0 0 0 0 0 0 0 0 0 0 0 0 0 0 0 0 0 0 0 0 0 0
0 0 0 0 0 0 0 0 0 0 0 0 0 0 0 0 0 0 0 0 0 0 0 0 0 0 0 0 0 0 0 0 -0 -0 0 0 0 0 0 0 0 0 0
0 0 0 0 0 0 0 0 0 0 0 0 0 0 0 0 0 0 0 0 0 0 0 0 0 0 0 0 0 0 0 0 -0 -0 0 0 0 0 0 0 0 0 0
0 0 0 0 0 0 0 0 0 0 0 0 0 0 0 0 0 0 0 0 0 0 0 0 0 0 0 0 0 0 0 -0 -0 0 0 0 0 0 0 0 0 0 0
Wind_Speed
14 11 10 8 7 5 5 6 8 9 8 7 7 7 7 6 7 7 8 8 8 7 6 4 5 5 5 5 5 4 6 6 5 7 10 10 10 11 9 8 6 9 7
14 12 12 11 8 7 7 7 8 8 6 6 5 6 6 7 7 7 7 7 7 6 5 4 4 5 5 4 4 5 6 6 5 6 10 11 11 8 5 5 6 8 8
16 14 13 11 9 8 9 9 8 8 8 9 8 8 9 8 6 5 4 4 4 4 5 6 5 5 6 4 4 4 6 6 6 4 6 9 10 11 10 8 6 6 7
17 15 13 12 11 10 11 12 11 11 11 9 8 7 6 5 4 3 2 2 3 5 5 4 4 3 4 3 3 4 5 6 6 6 5 6 9 10 10 10 10 10 9
18 16 16 15 14 13 13 13 14 13 12 9 9 8 7 6 4 3 2 2 1 3 5 4 4 3 3 3 3 4 5 5 6 6 6 7 7 9 11 11 11 11 10
15 16 16 15 13 13 13 13 14 12 11 10 9 8 8 5 3 2 3 4 2 2 5 5 4 3 3 3 3 3 4 4 5 5 5 6 7 8 10 12 12 13 13
17 17 17 15 13 14 14 13 13 12 10 10 8 8 6 4 2 2 3 4 2 2 5 3 3 3 3 4 4 4 4 3 4 5 6 7 8 8 9 11 12 15 12
17 17 15 15 14 14 13 14 12 12 10 9 8 6 4 2 2 5 2 2 2 3 2 3 3 4 4 4 5 6 5 4 5 6 6 7 9 9 10 10 12 15 13
16 15 14 12 12 12 12 13 14 12 10 9 7 6 5 6 5 5 1 1 2 2 3 4 5 5 6 6 7 7 7 8 8 8 8 8 9 10 9 11 12 13 11
17 14 12 11 11 12 11 13 13 12 10 9 7 5 6 5 2 1 2 3 3 4 5 5 6 7 8 8 8 9 10 9 10 10 11 12 10 9 9 9 9 13 13
16 16 14 13 12 13 12 11 11 11 10 9 6 3 4 1 2 3 3 3 4 5 6 6 7 9 10 11 11 12 13 14 12 11 13 15 15 12 11 11 10 10 12
16 15 14 14 13 13 12 11 9 10 9 6 3 3 3 1 3 4 4 5 6 7 8 9 10 12 13 13 14 14 15 16 16 14 16 16 16 14 13 12 13 12 11
15 12 13 13 13 11 10 10 10 8 6 5 3 2 1 3 4 4 4 5 7 9 10 12 13 14 14 15 14 14 15 15 14 15 16 15 18 16 15 14 13 13 11
15 12 11 11 10 10 9 9 8 6 4 4 2 1 2 3 4 5 6 7 9 11 12 13 13 13 13 12 11 11 11 12 11 12 13 14 14 16 15 14 15 13 13
14 12 12 12 10 9 8 8 7 5 3 3 2 1 1 2 4 6 8 9 10 9 9 9 9 9 8 8 10 12 13 14 12 14 15 14 17 20 18 15 15 14 12
15 13 12 12 10 8 7 7 6 4 2 1 1 1 2 5 6 7 8 7 7 7 7 7 8 8 6 10 10 12 14 14 14 15 15 14 16 19 19 17 19 18 17
14 13 11 8 7 7 7 5 6 3 2 2 3 2 3 4 5 6 6 6 6 7 7 8 8 8 6 7 8 12 14 13 13 14 13 13 13 14 13 15 17 19 20
12 12 10 9 7 6 6 2 4 3 2 2 3 3 4 5 5 5 6 7 7 8 8 8 8 7 3 4 9 15 14 13 13 12 12 12 13 14 14 14 14 14 16
13 13 11 9 8 6 4 1 2 4 3 3 3 5 5 5 6 6 7 7 8 7 8 7 7 7 6 4 8 13 11 11 13 11 11 12 11 13 15 14 14 15 14
14 13 10 9 8 6 3 1 1 1 3 5 6 6 6 6 6 6 7 6 7 7 8 8 7 6 8 4 6 12 10 11 11 11 11 15 15 16 16 13 13 14 14
15 13 10 7 5 5 5 2 1 5 5 4 6 5 5 4 5 6 5 6 5 6 7 8 7 7 8 7 7 12 11 11 11 11 9 9 14 15 15 13 11 12 12
13 11 9 8 7 5 4 4 5 6 5 5 5 4 5 6 6 6 4 3 5 6 7 8 7 7 7 7 11 14 13 14 12 11 10 11 14 15 14 11 11 12 8
11 10 11 10 7 5 4 7 6 6 6 5 5 5 6 6 6 4 5 6 6 6 8 8 8 8 8 9 13 15 15 16 14 12 16 14 14 14 11 10 8 5 3
13 13 12 11 8 6 6 7 7 6 5 5 5 5 6 5 5 6 7 7 7 7 6 7 7 8 9 10 11 12 12 13 13 13 13 13 11 11 10 9 7 6 5
10 9 10 9 8 7 8 7 6 5 5 5 5 5 5 6 6 6 7 8 8 6 6 8 9 9 9 11 14 13 10 9 11 12 8 8 8 7 6 5 5 5 4
10 10 9 8 9 9 9 7 6 5 4 4 5 5 5 7 6 4 2 3 2 1 2 5 7 8 9 13 16 16 14 14 15 9 7 7 8 7 6 5 5 6 5
Wind_Direction
206 169 169 159 151 133 108 110 117 134 150 153 142 123 114 111 102 88 75 71 65 56 39 39 37 12 17 10 353 336 307 296 304 302 289 274 262 251 248 265 269 267 254
198 184 175 173 164 139 123 119 125 135 144 128 107 111 109 89 77 77 74 72 71 63 56 20 354 354 327 296 314 319 302 291 291 298 305 291 280 258 291 315 290 283 286
195 181 184 172 162 143 125 121 119 117 109 109 111 111 116 122 121 112 118 103 82 44 19 358 346 325 294 326 336 330 320 322 313 311 299 312 316 334 307 291 299 327 313
196 179 166 161 149 144 135 130 124 115 110 116 121 130 128 127 135 150 140 126 41 356 357 357 4 349 330 21 360 16 336 336 325 325 310 308 308 307 310 321 315 303 289
182 174 159 148 149 149 140 132 124 116 113 118 125 131 127 135 152 146 186 247 31 14 4 22 25 6 354 38 15 3 349 335 335 326 327 318 308 301 295 292 291 290 286
157 149 144 141 144 142 134 125 119 120 125 131 134 127 120 121 133 86 319 329 3 36 47 18 27 0 342 347 332 342 338 340 329 325 315 312 316 313 306 304 301 296 293
140 143 144 141 143 142 135 128 131 129 130 121 114 104 106 110 103 65 17 321 345 30 63 357 1 334 336 317 310 311 307 307 312 312 317 321 315 308 303 303 303 297 295
146 147 148 146 148 145 143 139 133 125 114 101 92 82 49 52 53 70 43 303 350 27 31 329 338 328 321 314 301 288 292 300 287 292 295 301 299 303 302 304 303 301 306
146 149 150 149 145 143 147 136 122 112 98 85 69 61 41 35 50 81 247 297 343 356 342 314 300 300 303 311 307 293 291 283 282 285 275 277 295 303 311 308 305 303 295
149 147 152 145 139 139 123 112 111 95 81 73 61 49 62 61 68 233 341 341 336 341 324 306 297 288 286 289 291 290 288 285 282 287 296 291 286 286 287 279 286 293 289
156 154 148 136 144 138 129 123 109 95 83 73 71 60 65 97 228 279 332 310 290 291 295 300 297 292 288 286 282 279 279 278 273 268 272 277 285 289 298 293 288 283 285
158 147 140 150 156 145 139 125 104 91 88 95 111 100 80 325 273 291 313 296 282 285 290 292 287 285 284 284 284 284 286 290 291 287 290 295 288 291 290 291 285 284 283
146 142 144 161 150 141 126 112 96 92 101 107 98 77 16 280 269 285 305 295 288 288 292 294 290 292 298 301 299 298 303 303 304 301 299 293 289 291 291 289 289 289 286
150 147 154 156 137 125 120 111 105 106 108 115 142 187 286 283 274 287 294 294 294 292 293 291 296 304 307 309 325 330 322 308 302 298 291 285 284 283 285 288 289 285 282
158 155 156 141 139 134 113 101 96 104 131 150 156 148 211 268 282 293 303 306 304 309 314 317 318 321 324 10 355 324 312 308 308 300 294 293 299 300 290 280 281 286 285
164 160 151 150 141 122 120 120 114 115 126 146 188 170 267 287 297 305 310 318 335 340 337 336 332 332 355 39 356 325 313 311 311 307 304 299 294 290 284 280 277 276 280
162 151 136 130 116 109 97 103 128 136 187 218 256 268 288 306 329 333 343 353 351 344 337 332 332 329 5 38 341 325 314 312 300 296 299 302 298 298 299 294 290 284 279
139 130 123 109 92 94 99 110 104 112 198 215 294 333 359 9 23 4 1 357 347 341 339 334 329 326 19 24 338 331 315 306 303 302 301 300 296 297 297 295 289 282 276
125 121 116 109 104 91 66 73 139 146 212 290 353 31 43 46 16 3 2 353 343 349 335 333 336 342 340 0 351 332 320 312 308 312 308 298 287 283 281 282 281 278 276
109 109 106 108 121 133 134 300 321 357 1 17 53 65 47 22 10 2 356 351 340 353 343 343 335 327 318 358 9 336 323 312 314 310 303 302 296 290 287 287 286 285 290
105 105 104 111 122 116 114 111 27 38 32 81 92 68 34 8 0 352 357 340 340 354 338 324 319 315 316 338 21 344 329 324 314 307 309 301 305 307 301 293 289 292 300
101 103 115 128 138 152 144 119 66 73 95 99 85 56 17 355 357 347 334 330 8 350 342 335 334 328 327 345 359 336 322 323 317 308 314 330 333 323 313 303 294 293 296
123 135 134 138 144 144 104 84 89 103 109 99 71 38 17 9 357 344 354 19 18 2 357 347 340 330 336 349 347 332 325 327 324 315 317 331 340 331 326 334 344 356 37
140 142 143 137 137 123 96 94 102 110 112 87 56 38 42 10 23 21 32 21 14 10 351 340 338 337 344 342 335 330 329 329 324 323 325 340 345 343 349 2 18 35 58
126 124 120 117 106 100 98 100 110 119 96 67 43 32 57 50 47 40 23 22 33 14 348 349 339 334 330 325 321 320 323 324 322 324 340 351 354 358 8 17 25 37 46
120 124 125 115 108 106 106 107 107 90 61 56 63 33 36 49 37 30 89 117 72 338 334 342 331 330 326 324 328 332 329 333 334 340 352 350 350 353 4 26 36 40 45